This demonstration page uses our WeatherBlox Daily Observations layout. Learn more.

Left ArrowRight Arrow

Hourly Observations for March 18, 2020

Temp ( °F °C ) Dew Point ( °F °C ) Humidity (%) Winds ( mph kmh ) Pressure ( in mb ) Visibility ( mi km ) Precip ( " mm )
12:20 am 00:20 Cloudy with Light Rain 39 4 39 4 100 100 SSE 9 15 30.02 1016 2 3 0.00 0.00
12:27 am 00:27 Cloudy with Light Rain 39 4 39 4 100 100 SSE 10 17 30.01 1016 3 4 0.00 0.00
12:56 am 00:56 Cloudy with Mist and Fog 40 4.4 40 4.4 100 100 SSE 10 17 29.97 1015 3 4 0.00 0.00
1:03 am 01:03 Cloudy with Mist and Fog 41 5 39 4 93 93 S 9 15 29.99 1015 3 5 0.00 0.00
1:56 am 01:56 Cloudy with Mist and Fog 41 5 41 5 100 100 SSE 12 19 29.94 1014 6 10 0.00 0.00
2:56 am 02:56 Cloudy with Mist and Fog 41 5 41 5 100 100 S 12 19 29.92 1013 2 3 0.00 0.00
3:05 am 03:05 Cloudy with Mist and Fog 41 5 41 5 100 100 S 7 11 29.95 1014 2 3 0.00 0.00
3:39 am 03:39 Cloudy with Mist and Fog 41 5 41 5 100 100 S 3 6 29.95 1014 1 2 0.00 0.00
3:53 am 03:53 Cloudy with Mist and Fog 41 5 41 5 100 100 S 5 7 29.95 1014 1 1 0.00 0.00
3:56 am 03:56 Cloudy with Mist and Fog 41 5 41 5 100 100 S 5 7 29.92 1013 1 1 0.00 0.00
4:37 am 04:37 Cloudy with Mist and Fog 41 5 41 5 100 100 Calm 29.94 1014 1 2 0.00 0.00
4:56 am 04:56 Cloudy with Fog 41 5 41 5 100 100 Calm 29.91 1013 1 1 0.00 0.00
5:51 am 05:51 Cloudy with Light Rain 41 5 41 5 100 100 Calm 29.92 1013 0 0 0.00 0.00
5:56 am 05:56 Cloudy with Light Rain 41 5 41 5 100 100 Calm 29.90 1013 0 0 0.00 0.00
6:03 am 06:03 Cloudy with Light Rain 41 5 41 5 100 100 Calm 29.93 1013 1 1 0.00 0.00
6:56 am 06:56 Cloudy with Light Rain 41 5 41 5 100 100 ENE 3 6 29.90 1013 1 1 0.00 0.00
7:13 am 07:13 Cloudy with Light Rain 41 5 41 5 100 100 E 5 7 29.92 1013 1 1 0.00 0.00
7:24 am 07:24 Cloudy with Light Rain 41 5 41 5 100 100 E 5 7 29.93 1013 1 1 0.00 0.00
7:33 am 07:33 Cloudy with Mist and Fog 41 5 41 5 100 100 ESE 5 7 29.93 1013 1 2 0.00 0.00
7:43 am 07:43 Cloudy with Fog 41 5 41 5 100 100 E 5 7 29.94 1014 1 1 0.00 0.00
7:54 am 07:54 Cloudy with Light Rain 41 5 41 5 100 100 E 5 7 29.94 1014 0 0 0.00 0.00
7:56 am 07:56 Cloudy with Light Rain 41 5 41 5 100 100 E 5 7 29.92 1013 0 0 0.00 0.00
8:56 am 08:56 Cloudy with Fog 41 5 41 5 100 100 NE 6 9 29.93 1014 0 0 0.00 0.00
9:56 am 09:56 Cloudy with Fog 42 5.6 42 5.6 100 100 ENE 7 11 29.95 1014 0 0 0.00 0.00
10:30 am 10:30 Cloudy with Fog 43 6 43 6 100 100 NE 5 7 29.97 1015 1 1 0.00 0.00
10:41 am 10:41 Cloudy with Mist and Fog 45 7 45 7 100 100 NNE 6 9 29.95 1014 1 2 0.00 0.00
11:46 am 11:46 Cloudy 45 7 45 7 100 100 ENE 6 9 29.95 1014 9 14 0.00 0.00
11:56 am 11:56 Cloudy 45 7.2 45 7.2 100 100 ENE 5 7 29.94 1014 10 16 0.00 0.00
12:56 pm 12:56 Cloudy 46 7.8 45 7.2 96 96 E 7 11 29.93 1014 9 14 0.00 0.00
1:04 pm 13:04 Cloudy 46 8 45 7 93 93 ENE 8 13 29.93 1014 10 16 0.00 0.00
1:56 pm 13:56 Cloudy 47 8.3 46 7.8 97 97 NE 9 15 29.92 1013 10 16 0.00 0.00
2:56 pm 14:56 Cloudy 49 9.4 45 7.2 86 86 ENE 9 15 29.91 1013 10 16 0.00 0.00
3:56 pm 15:56 Cloudy with Mist and Fog 48 8.9 46 7.8 93 93 E 9 15 29.91 1013 5 8 0.00 0.00
4:56 pm 16:56 Cloudy with Mist and Fog 48 8.9 46 7.8 93 93 ENE 10 17 29.89 1012 3 4 0.00 0.00
5:25 pm 17:25 Cloudy with Light Rain 48 9 46 8 94 94 E 10 17 29.88 1012 2 3 0.00 0.00
5:56 pm 17:56 Cloudy with Light Rain 48 8.9 47 8.3 96 96 E 10 17 29.90 1012 2 2 0.00 0.00
6:56 pm 18:56 Cloudy with Light Rain 48 8.9 47 8.3 96 96 E 8 13 29.90 1013 1 2 0.00 0.00
7:24 pm 19:24 Cloudy with Light Rain 48 9 46 8 94 94 E 8 13 29.90 1013 1 2 0.00 0.00
7:56 pm 19:56 Cloudy with Light Rain 48 8.9 47 8.3 96 96 E 10 17 29.90 1013 1 2 0.01 0.25
8:03 pm 20:03 Cloudy with Light Rain 48 9 46 8 94 94 E 9 15 29.89 1012 2 3 0.00 0.00
8:11 pm 20:11 Cloudy with Light Rain 46 8 46 8 100 100 E 8 13 29.91 1013 3 4 0.00 0.00
8:23 pm 20:23 Cloudy with Light Rain 46 8 46 8 100 100 E 9 15 29.91 1013 3 5 0.00 0.00
8:32 pm 20:32 Cloudy with Light Rain 46 8 46 8 100 100 E 8 13 29.91 1013 3 4 0.00 0.00
8:43 pm 20:43 Cloudy with Light Rain 46 8 46 8 100 100 E 12 19 29.90 1013 3 5 0.00 0.00
8:56 pm 20:56 Cloudy with Mist and Fog 47 8.3 47 8.3 100 100 E 12 19 29.90 1013 3 5 0.00 0.00
9:56 pm 21:56 Cloudy with Mist and Fog 47 8.3 47 8.3 100 100 E 12 19 29.88 1012 3 5 0.00 0.00
10:03 pm 22:03 Cloudy with Mist and Fog 46 8 46 8 100 100 E 13 20 29.88 1012 2 3 0.00 0.00
10:15 pm 22:15 Cloudy with Mist and Fog 46 8 46 8 100 100 E 14 22 29.87 1012 1 2 0.00 0.00
10:29 pm 22:29 Cloudy with Light Rain 46 8 46 8 100 100 E 14 22 29.86 1011 1 1 0.00 0.00
10:44 pm 22:44 Cloudy with Light Rain 46 8 46 8 100 100 E 14 22 29.86 1011 1 1 0.00 0.00
10:52 pm 22:52 Cloudy with Light Rain 46 8 46 8 100 100 E 14 22 29.86 1011 1 1 0.00 0.00
10:56 pm 22:56 Cloudy with Light Rain 47 8.3 47 8.3 100 100 E 15 24 29.85 1011 1 1 0.00 0.00
11:10 pm 23:10 Cloudy with Light Rain 46 8 46 8 100 100 E 14 22 29.86 1011 1 1 0.00 0.00
11:56 pm 23:56 Cloudy with Light Rain 47 8.3 47 8.3 100 100 E 13 20 29.85 1011 1 1 0.00 0.00

Powered by AerisWeather